| time (UTC) | temp F | wind direction | speed MPH | gust MPH | rain 1hr in | rain 24hr in | rain mn in | humidity % | barometer mb |
| 20260505213027 | 55 | 146 | 0.0 | 6.0 | 0.00 | 0.00 | 0.00 | 72 | 1007.5 |
| 20260505211515 | 55 | 167 | 1.0 | 8.0 | 0.00 | 0.00 | 0.00 | 72 | 1007.5 |
| 20260505210015 | 55 | 90 | 1.0 | 7.0 | 0.00 | 0.00 | 0.00 | 72 | 1006.9 |
| 20260505204513 | 55 | 145 | 0.0 | 11.0 | 0.00 | 0.00 | 0.00 | 75 | 1006.9 |
| 20260505203014 | 55 | 172 | 1.0 | 7.0 | 0.00 | 0.00 | 0.00 | 75 | 1007.3 |
| 20260505201512 | 55 | 137 | 1.0 | 11.0 | 0.00 | 0.00 | 0.00 | 75 | 1006.9 |
| 20260505200010 | 56 | 169 | 0.0 | 9.0 | 0.00 | 0.00 | 0.00 | 74 | 1006.8 |
| 20260505194505 | 56 | 170 | 1.0 | 6.0 | 0.00 | 0.00 | 0.00 | 76 | 1006.7 |
| 20260505193004 | 56 | 96 | 2.0 | 7.0 | 0.00 | 0.00 | 0.00 | 76 | 1006.7 |
| 20260505191501 | 56 | 152 | 2.0 | 11.0 | 0.00 | 0.00 | 0.00 | 76 | 1006.4 |
| 20260505190059 | 56 | 153 | 1.0 | 8.0 | 0.00 | 0.00 | 0.00 | 78 | 1006.3 |
| 20260505184558 | 56 | 162 | 1.0 | 8.0 | 0.00 | 0.00 | 0.00 | 78 | 1005.9 |
| 20260505183058 | 56 | 149 | 0.0 | 8.0 | 0.00 | 0.00 | 0.00 | 80 | 1006.1 |
| 20260505181555 | 56 | 169 | 0.0 | 7.0 | 0.00 | 0.00 | 0.00 | 80 | 1006.0 |
| 20260505180059 | 56 | 164 | 0.0 | 13.0 | 0.00 | 0.00 | 0.00 | 81 | 1005.9 |
| 20260505174550 | 57 | 149 | 0.0 | 6.0 | 0.00 | 0.00 | 0.00 | 82 | 1005.2 |
| 20260505173055 | 57 | 172 | 0.0 | 8.0 | 0.00 | 0.00 | 0.00 | 82 | 1005.2 |
| 20260505171548 | 57 | 169 | 0.0 | 7.0 | 0.00 | 0.00 | 0.00 | 82 | 1005.0 |
| 20260505164544 | 58 | 91 | 2.0 | 10.0 | 0.00 | 0.00 | 0.00 | 82 | 1004.5 |
| 20260505163042 | 58 | 172 | 0.0 | 15.0 | 0.00 | 0.00 | 0.00 | 82 | 1004.2 |
| 20260505161536 | 59 | 172 | 2.0 | 11.0 | 0.00 | 0.00 | 0.00 | 81 | 1004.0 |
| 20260505153024 | 65 | 154 | 1.0 | 8.0 | 0.00 | 0.00 | 0.00 | 77 | 1003.2 |
| 20260505151521 | 69 | 172 | 1.0 | 6.0 | 0.00 | 0.00 | 0.00 | 76 | 1002.7 |
| 20260505124511 | 67 | 98 | 3.0 | 9.0 | 0.00 | 0.00 | 0.00 | 80 | 1002.2 |
| 20260505123005 | 67 | 96 | 0.0 | 6.0 | 0.00 | 0.00 | 0.00 | 80 | 1002.1 |
| 20260505121508 | 67 | 91 | 1.0 | 8.0 | 0.00 | 0.00 | 0.00 | 80 | 1001.8 |
| 20260505120004 | 67 | 101 | 0.0 | 2.0 | 0.00 | 0.00 | 0.00 | 80 | 1001.9 |
| 20260505114504 | 67 | 91 | 1.0 | 5.0 | 0.00 | 0.00 | 0.00 | 80 | 1001.9 |
| 20260505113005 | 67 | 175 | 0.0 | 4.0 | 0.00 | 0.00 | 0.00 | 80 | 1001.6 |
| 20260505111601 | 67 | 172 | 1.0 | 4.0 | 0.00 | 0.00 | 0.00 | 80 | 1001.5 |
| 20260505101559 | 67 | 95 | 0.0 | 4.0 | 0.00 | 0.00 | 0.00 | 80 | 1000.7 |
| 20260505100100 | 67 | 91 | 1.0 | 5.0 | 0.00 | 0.00 | 0.00 | 79 | 1000.6 |
| 20260505094555 | 67 | 104 | 2.0 | 7.0 | 0.00 | 0.00 | 0.00 | 78 | 1000.4 |
| 20260505093053 | 68 | 93 | 0.0 | 8.0 | 0.00 | 0.00 | 0.00 | 77 | 1000.5 |
| 20260505091550 | 69 | 91 | 2.0 | 7.0 | 0.00 | 0.00 | 0.00 | 76 | 1000.4 |
| 20260505090059 | 69 | 91 | 1.0 | 6.0 | 0.00 | 0.00 | 0.00 | 75 | 1000.5 |
| 20260505084551 | 69 | 104 | 2.0 | 7.0 | 0.00 | 0.00 | 0.00 | 75 | 1000.6 |
| 20260505083055 | 69 | 101 | 2.0 | 5.0 | 0.00 | 0.00 | 0.00 | 75 | 1000.5 |
| 20260505081547 | 69 | 96 | 1.0 | 4.0 | 0.00 | 0.00 | 0.00 | 74 | 1000.8 |
| 20260505080046 | 69 | 97 | 1.0 | 6.0 | 0.00 | 0.00 | 0.00 | 74 | 1000.8 |
| 20260505074542 | 69 | 98 | 0.0 | 5.0 | 0.00 | 0.00 | 0.00 | 73 | 1001.0 |
| 20260505073041 | 69 | 96 | 0.0 | 2.0 | 0.00 | 0.00 | 0.00 | 73 | 1001.2 |
| 20260505071540 | 70 | 171 | 0.0 | 3.0 | 0.00 | 0.00 | 0.00 | 73 | 1001.5 |
| 20260505070044 | 70 | 173 | 0.0 | 0.0 | 0.00 | 0.00 | 0.00 | 73 | 1001.6 |
| 20260505064538 | 69 | 176 | 0.0 | 0.0 | 0.00 | 0.00 | 0.00 | 73 | 1001.8 |
| 20260505063040 | 69 | 175 | 0.0 | 0.0 | 0.00 | 0.00 | 0.00 | 74 | 1001.9 |
| 20260505061540 | 70 | 176 | 0.0 | 3.0 | 0.00 | 0.00 | 0.00 | 72 | 1001.6 |
| 20260505060036 | 70 | 96 | 0.0 | 4.0 | 0.00 | 0.00 | 0.00 | 72 | 1000.9 |
| 20260505054538 | 70 | 108 | 1.0 | 6.0 | 0.00 | 0.00 | 0.00 | 71 | 1001.0 |
| 20260505053040 | 70 | 103 | 0.0 | 6.0 | 0.00 | 0.00 | 0.00 | 70 | 1001.1 |
| 20260505051531 | 70 | 95 | 1.0 | 5.0 | 0.00 | 0.00 | 0.00 | 70 | 1001.5 |
| 20260505041524 | 71 | 95 | 3.0 | 13.0 | 0.00 | 0.00 | 0.00 | 66 | 1001.1 |
| 20260505040022 | 71 | 97 | 2.0 | 9.0 | 0.00 | 0.00 | 0.00 | 66 | 1001.4 |
| 20260505034521 | 70 | 98 | 3.0 | 6.0 | 0.00 | 0.00 | 0.00 | 66 | 1001.6 |
| 20260505033021 | 71 | 134 | 2.0 | 9.0 | 0.00 | 0.00 | 0.00 | 65 | 1001.8 |
| 20260505031519 | 71 | 91 | 3.0 | 9.0 | 0.00 | 0.00 | 0.00 | 64 | 1002.1 |
| 20260505030025 | 72 | 102 | 4.0 | 11.0 | 0.00 | 0.00 | 0.00 | 62 | 1002.1 |
| 20260505024517 | 72 | 94 | 2.0 | 8.0 | 0.00 | 0.00 | 0.00 | 62 | 1002.3 |
| 20260505023017 | 72 | 142 | 1.0 | 6.0 | 0.00 | 0.00 | 0.00 | 62 | 1002.3 |
| 20260505021516 | 72 | 101 | 2.0 | 8.0 | 0.00 | 0.00 | 0.00 | 61 | 1002.3 |
| 20260505020015 | 73 | 95 | 3.0 | 9.0 | 0.00 | 0.00 | 0.00 | 60 | 1002.3 |
| 20260505014516 | 73 | 93 | 4.0 | 10.0 | 0.00 | 0.00 | 0.00 | 60 | 1002.1 |
| 20260505013014 | 74 | 104 | 3.0 | 8.0 | 0.00 | 0.00 | 0.00 | 60 | 1002.2 |
| 20260505011518 | 74 | 95 | 1.0 | 5.0 | 0.00 | 0.00 | 0.00 | 59 | 1002.1 |
| 20260505010012 | 75 | 97 | 2.0 | 6.0 | 0.00 | 0.00 | 0.00 | 59 | 1002.0 |
| 20260505004528 | 76 | 98 | 0.0 | 3.0 | 0.00 | 0.00 | 0.00 | 57 | 1002.1 |
| 20260505003012 | 76 | 96 | 1.0 | 5.0 | 0.00 | 0.00 | 0.00 | 56 | 1002.1 |
| 20260505001510 | 77 | 141 | 2.0 | 6.0 | 0.00 | 0.00 | 0.00 | 55 | 1002.2 |
| 20260505000013 | 77 | 127 | 1.0 | 7.0 | 0.00 | 0.00 | 0.00 | 54 | 1002.5 |
| 20260504234508 | 78 | 133 | 1.0 | 10.0 | 0.00 | 0.00 | 0.00 | 54 | 1002.4 |
| 20260504233008 | 78 | 123 | 1.0 | 8.0 | 0.00 | 0.00 | 0.00 | 54 | 1002.4 |
| 20260504231521 | 79 | 97 | 3.0 | 11.0 | 0.00 | 0.00 | 0.00 | 53 | 1002.5 |
| 20260504230010 | 79 | 101 | 1.0 | 5.0 | 0.00 | 0.00 | 0.00 | 52 | 1002.5 |
| 20260504224506 | 80 | 127 | 1.0 | 6.0 | 0.00 | 0.00 | 0.00 | 51 | 1002.5 |
| 20260504223005 | 80 | 134 | 0.0 | 5.0 | 0.00 | 0.00 | 0.00 | 52 | 1002.4 |
| 20260504221504 | 80 | 127 | 2.0 | 8.0 | 0.00 | 0.00 | 0.00 | 52 | 1002.3 |
| 20260504220003 | 80 | 127 | 1.0 | 11.0 | 0.00 | 0.00 | 0.00 | 50 | 1002.4 |
| 20260504214501 | 81 | 134 | 0.0 | 8.0 | 0.00 | 0.00 | 0.00 | 49 | 1002.6 |